Regional Weather Roundup
Issued by NWS Goodland, KS

Home | Current Version | Previous Version | Text Only | Print | Product List | Glossary On
Versions: 1 2 3 4 5 6 7 8 9 10 11 12 13 14 15 16 17 18 19 20 21 22 23 24 25 26 27 28 29 30 31 32 33 34 35 36 37 38 39 40 41 42 43 44 45 46 47 48 49 50
000
ASUS43 KGLD 240008
RWRGLD

GOODLAND FORECAST AREA HOURLY WEATHER ROUNDUP
NATIONAL WEATHER SERVICE GOODLAND KS
600 PM MDT SUN APR 23 2017

...OFFICIAL OBSERVATIONS...

CITY           SKY/WX    TMP DP  RH WIND       PRES   REMARKS
GOODLAND KS    CLOUDY    65  39  38 S25G36    29.78F
HILL CITY KS   SUNNY     68  31  25 S17G33    29.87F
IMPERIAL NEB   CLOUDY    68  36  30 S25G32    29.76F
MCCOOK NEB     MOSUNNY   68  35  29 S23G33    29.80F
AKRON CO       CLOUDY    66  38  35 S15       29.74F
BURLINGTON CO  NOT AVBL
LIMON CO       CLOUDY    65  34  31 S17G28    29.79F
$$

...UNOFFICIAL OBSERVATIONS...

CITY           SKY/WX    TMP DP  RH WIND       PRES   REMARKS
LENORA KS        N/A     67  32  27 MISG        N/A
NORTON KS      SUNNY     64  25  22 S25G35    29.84
SHARON SPRINGS   N/A     65  41  41 S22G35      N/A
TRENTON NEB      N/A     67  32  27 S18         N/A
KIT CARSON CO    N/A     71  39  30 MISG        N/A
YUMA CO        FAIR      68  34  28 S17G23    29.74S
$$



USA.gov is the U.S. government's official web portal to all federal, state and local government web resources and services.